763  
ASUS41 KRLX 231610  
RWRRLX  
WEST VIRGINIA REGIONAL WEATHER ROUNDUP  
NATIONAL WEATHER SERVICE CHARLESTON WV  
1100 AM EST FRI FEB 23 2018  
 
NOTE: "FAIR" INDICATES FEW OR NO CLOUDS BELOW 12,000 FEET WITH NO  
SIGNIFICANT WEATHER AND/OR S TO VISIBILITY
.  
 
WVZ003-231700-  
NORTHERN PANHANDLE OF WEST VIRGINIA  
 
CITY SKY/WX TMP DP RH WIND PRES REMARKS
 
WHEELING LGT RAIN 51 50 96 CALM 30.22F VSB 1  

 
 
WVZ009-231700-  
NORTHWEST WEST VIRGINIA  
 
CITY SKY/WX TMP DP RH WIND PRES REMARKS
 
PARKERSBURG CLOUDY 56 54 93 W3 30.28R  

 
 
WVZ006-231700-  
WESTERN WEST VIRGINIA  
 
CITY SKY/WX TMP DP RH WIND PRES REMARKS
 
HUNTINGTON FAIR 64 56 75 S9G20 30.27S  

 
 
WVZ015-231700-  
WEST CENTRAL WEST VIRGINIA  
 
CITY SKY/WX TMP DP RH WIND PRES REMARKS
 
CHARLESTON PTSUNNY 74 58 57 SW17G28 30.28F  

 
 
WVZ022-031-231700-  
NORTH CENTRAL WEST VIRGINIA  
 
CITY SKY/WX TMP DP RH WIND PRES REMARKS
 
CLARKSBURG PTSUNNY 65 58 78 S7 30.26F  
MORGANTOWN CLOUDY 61 53 75 SE8 30.26F  

 
 
WVZ025-035-042-045-231700-  
SOUTHERN WEST VIRGINIA  
 
CITY SKY/WX TMP DP RH WIND PRES REMARKS
 
BECKLEY CLOUDY 66 57 72 S9 30.39S  
LOGAN PTSUNNY 72 57 60 S10G17 30.34S  
BLUEFIELD FAIR 64 54 69 S7 30.42S  
LEWISBURG CLOUDY 57 53 86 N6 30.42S  

 
 
WVZ047-231700-  
NORTHERN MOUNTAINS OF WEST VIRGINIA  
 
CITY SKY/WX TMP DP RH WIND PRES REMARKS
 
ELKINS PTSUNNY 60 55 83 CALM 30.34F  

 
 
WVZ052-231700-  
EASTERN PANHANDLE OF WEST VIRGINIA  
 
CITY SKY/WX TMP DP RH WIND PRES REMARKS
 
MARTINSBURG CLOUDY 41 39 93 SE6 30.49F  
PETERSBURG CLOUDY 44 41 89 CALM 30.44F  

 
 
 
CLICK HERE TO GO TO PREVIOUS BULLETINS.

The Nexlab WV Page
The Nexlab OH Page
The Nexlab KY Page
The Nexlab VA Page Main Text Page